| time (UTC) | temp C | wind direction | speed KPH | gust KPH | rain 1hr cm | rain 24hr cm | rain mn cm | humidity % | barometer mb |
| 20260504012503 | 13 | 213 | 6.4 | 14.5 | 0.00 | 0.91 | 0.91 | 69 | 1011.9 |
| 20260504012003 | 13 | 214 | 6.4 | 12.9 | 0.00 | 0.91 | 0.91 | 68 | 1011.9 |
| 20260504011503 | 13 | 221 | 6.4 | 12.9 | 0.00 | 0.91 | 0.91 | 67 | 1011.9 |
| 20260504011003 | 13 | 221 | 6.4 | 12.9 | 0.00 | 0.91 | 0.91 | 67 | 1011.9 |
| 20260504010503 | 13 | 215 | 4.8 | 14.5 | 0.00 | 0.91 | 0.91 | 67 | 1011.9 |
| 20260504010003 | 13 | 215 | 6.4 | 16.1 | 0.00 | 0.91 | 0.91 | 67 | 1011.8 |
| 20260504005524 | 13 | 216 | 9.7 | 17.7 | 0.00 | 0.91 | 0.91 | 67 | 1012.2 |
| 20260504005003 | 14 | 215 | 9.7 | 17.7 | 0.00 | 0.91 | 0.91 | 66 | 1012.0 |
| 20260504004503 | 14 | 210 | 8.0 | 14.5 | 0.00 | 0.91 | 0.91 | 66 | 1012.0 |
| 20260504004003 | 14 | 210 | 4.8 | 12.9 | 0.00 | 0.91 | 0.91 | 66 | 1012.1 |
| 20260504003503 | 14 | 208 | 4.8 | 11.3 | 0.00 | 0.91 | 0.91 | 66 | 1011.9 |
| 20260504003003 | 14 | 208 | 3.2 | 11.3 | 0.00 | 0.91 | 0.91 | 67 | 1012.0 |
| 20260504002503 | 14 | 223 | 1.6 | 6.4 | 0.00 | 0.91 | 0.91 | 67 | 1012.0 |
| 20260504002024 | 14 | 230 | 1.6 | 6.4 | 0.00 | 0.91 | 0.91 | 67 | 1012.1 |
| 20260504001503 | 14 | 231 | 3.2 | 4.8 | 0.00 | 0.91 | 0.91 | 68 | 1012.1 |
| 20260504001024 | 14 | 229 | 3.2 | 4.8 | 0.00 | 0.91 | 0.91 | 67 | 1012.3 |
| 20260504000503 | 14 | 218 | 3.2 | 9.7 | 0.00 | 0.91 | 0.91 | 67 | 1012.1 |
| 20260504000003 | 14 | 215 | 4.8 | 11.3 | 0.00 | 0.91 | 0.91 | 66 | 1012.3 |
| 20260503235503 | 14 | 214 | 6.4 | 11.3 | 0.00 | 0.91 | 0.91 | 66 | 1012.3 |
| 20260503235003 | 14 | 212 | 4.8 | 9.7 | 0.00 | 0.91 | 0.91 | 65 | 1012.2 |
| 20260503234524 | 15 | 214 | 4.8 | 9.7 | 0.00 | 0.91 | 0.91 | 65 | 1012.3 |
| 20260503234003 | 15 | 215 | 4.8 | 11.3 | 0.00 | 0.91 | 0.91 | 65 | 1012.2 |
| 20260503233503 | 15 | 207 | 6.4 | 11.3 | 0.00 | 0.91 | 0.91 | 64 | 1012.5 |
| 20260503233003 | 15 | 198 | 6.4 | 11.3 | 0.00 | 0.91 | 0.91 | 64 | 1012.5 |
| 20260503232524 | 15 | 199 | 6.4 | 11.3 | 0.00 | 0.91 | 0.91 | 63 | 1012.5 |
| 20260503232003 | 15 | 205 | 6.4 | 11.3 | 0.00 | 0.91 | 0.91 | 62 | 1012.3 |
| 20260503231503 | 15 | 206 | 6.4 | 11.3 | 0.00 | 0.91 | 0.91 | 60 | 1012.5 |
| 20260503231003 | 15 | 214 | 4.8 | 11.3 | 0.00 | 0.91 | 0.91 | 59 | 1012.3 |
| 20260503230503 | 15 | 215 | 4.8 | 11.3 | 0.00 | 0.91 | 0.91 | 60 | 1012.3 |
| 20260503230003 | 15 | 212 | 4.8 | 11.3 | 0.91 | 0.91 | 0.91 | 59 | 1012.5 |
| 20260503225503 | 15 | 216 | 3.2 | 11.3 | 0.91 | 0.91 | 0.91 | 60 | 1012.6 |
| 20260503225003 | 15 | 212 | 4.8 | 11.3 | 0.91 | 0.91 | 0.91 | 60 | 1012.8 |
| 20260503224503 | 15 | 216 | 6.4 | 12.9 | 0.91 | 0.91 | 0.91 | 60 | 1012.6 |
| 20260503224003 | 15 | 231 | 6.4 | 12.9 | 0.91 | 0.91 | 0.91 | 60 | 1012.5 |
| 20260503223503 | 15 | 239 | 4.8 | 11.3 | 0.91 | 0.91 | 0.91 | 60 | 1012.7 |
| 20260503223003 | 15 | 236 | 3.2 | 9.7 | 0.91 | 0.91 | 0.91 | 61 | 1012.7 |
| 20260503222503 | 15 | 229 | 4.8 | 9.7 | 0.91 | 0.91 | 0.91 | 60 | 1012.7 |
| 20260503222003 | 15 | 224 | 4.8 | 9.7 | 0.91 | 0.91 | 0.91 | 59 | 1012.6 |
| 20260503221524 | 15 | 227 | 4.8 | 9.7 | 0.91 | 0.91 | 0.91 | 59 | 1012.7 |
| 20260503221024 | 15 | 217 | 4.8 | 11.3 | 0.91 | 0.91 | 0.91 | 59 | 1012.8 |
| 20260503220524 | 15 | 216 | 6.4 | 12.9 | 0.91 | 0.91 | 0.91 | 58 | 1012.7 |
| 20260503220003 | 15 | 220 | 6.4 | 12.9 | 0.00 | 0.00 | 0.00 | 58 | 1012.7 |
| 20260503215503 | 15 | 221 | 4.8 | 12.9 | 0.00 | 0.00 | 0.81 | 58 | 1012.6 |
| 20260503215003 | 16 | 214 | 4.8 | 12.9 | 0.00 | 0.00 | 0.81 | 58 | 1012.6 |
| 20260503214503 | 16 | 217 | 4.8 | 12.9 | 0.00 | 0.00 | 0.81 | 58 | 1012.6 |
| 20260503214003 | 16 | 220 | 4.8 | 11.3 | 0.00 | 0.00 | 0.81 | 57 | 1012.6 |
| 20260503213503 | 16 | 212 | 4.8 | 11.3 | 0.00 | 0.00 | 0.81 | 57 | 1012.5 |
| 20260503213003 | 16 | 212 | 6.4 | 11.3 | 0.00 | 0.00 | 0.81 | 57 | 1012.7 |
| 20260503212503 | 16 | 213 | 4.8 | 9.7 | 0.00 | 0.00 | 0.81 | 57 | 1012.6 |
| 20260503212024 | 16 | 216 | 4.8 | 11.3 | 0.00 | 0.00 | 0.81 | 56 | 1012.5 |
| 20260503211503 | 16 | 227 | 4.8 | 11.3 | 0.00 | 0.00 | 0.81 | 56 | 1012.5 |
| 20260503211024 | 16 | 244 | 6.4 | 14.5 | 0.00 | 0.00 | 0.81 | 57 | 1012.3 |
| 20260503210524 | 16 | 246 | 6.4 | 14.5 | 0.00 | 0.00 | 0.81 | 56 | 1012.3 |
| 20260503210003 | 16 | 246 | 6.4 | 14.5 | 0.00 | 0.00 | 0.81 | 56 | 1012.1 |
| 20260503205503 | 16 | 246 | 6.4 | 14.5 | 0.00 | 0.00 | 0.81 | 56 | 1012.1 |
| 20260503205003 | 16 | 244 | 6.4 | 12.9 | 0.00 | 0.00 | 0.81 | 56 | 1012.3 |
| 20260503204503 | 16 | 243 | 6.4 | 14.5 | 0.00 | 0.00 | 0.81 | 57 | 1012.2 |
| 20260503204003 | 16 | 238 | 6.4 | 14.5 | 0.00 | 0.00 | 0.81 | 57 | 1012.0 |
| 20260503203503 | 16 | 239 | 8.0 | 17.7 | 0.00 | 0.00 | 0.81 | 58 | 1012.0 |
| 20260503203003 | 16 | 237 | 8.0 | 17.7 | 0.00 | 0.00 | 0.81 | 57 | 1012.1 |
| 20260503202503 | 16 | 226 | 8.0 | 17.7 | 0.00 | 0.00 | 0.81 | 57 | 1012.0 |
| 20260503202003 | 16 | 224 | 6.4 | 17.7 | 0.00 | 0.00 | 0.81 | 59 | 1011.9 |
| 20260503201503 | 16 | 237 | 6.4 | 14.5 | 0.00 | 0.00 | 0.81 | 59 | 1011.7 |
| 20260503201003 | 16 | 237 | 6.4 | 14.5 | 0.00 | 0.00 | 0.81 | 58 | 1011.8 |
| 20260503200503 | 16 | 242 | 8.0 | 16.1 | 0.00 | 0.00 | 0.81 | 59 | 1011.5 |
| 20260503200003 | 16 | 251 | 8.0 | 16.1 | 0.00 | 0.00 | 0.81 | 60 | 1011.6 |
| 20260503195524 | 16 | 250 | 8.0 | 16.1 | 0.00 | 0.00 | 0.81 | 60 | 1011.9 |
| 20260503195003 | 16 | 249 | 8.0 | 14.5 | 0.00 | 0.00 | 0.81 | 61 | 1011.7 |
| 20260503194502 | 16 | 249 | 6.4 | 12.9 | 0.00 | 0.00 | 0.81 | 61 | 1011.6 |
| 20260503194023 | 16 | 253 | 6.4 | 14.5 | 0.00 | 0.00 | 0.81 | 63 | 1011.4 |
| 20260503193503 | 16 | 261 | 6.4 | 14.5 | 0.00 | 0.00 | 0.81 | 63 | 1011.2 |
| 20260503193003 | 16 | 260 | 6.4 | 11.3 | 0.00 | 0.00 | 0.81 | 64 | 1011.4 |
| 20260503192503 | 16 | 257 | 8.0 | 14.5 | 0.00 | 0.00 | 0.81 | 63 | 1011.4 |
| 20260503192003 | 16 | 256 | 9.7 | 20.9 | 0.00 | 0.00 | 0.81 | 63 | 1011.3 |
| 20260503191503 | 16 | 247 | 8.0 | 20.9 | 0.00 | 0.00 | 0.81 | 62 | 1011.3 |
| 20260503191003 | 16 | 250 | 8.0 | 17.7 | 0.00 | 0.00 | 0.81 | 62 | 1011.3 |
| 20260503190503 | 16 | 256 | 9.7 | 17.7 | 0.00 | 0.00 | 0.81 | 62 | 1011.1 |
| 20260503190003 | 17 | 249 | 8.0 | 17.7 | 0.00 | 0.00 | 0.81 | 61 | 1011.2 |
| 20260503185502 | 17 | 255 | 8.0 | 22.5 | 0.00 | 0.00 | 0.81 | 61 | 1011.1 |
| 20260503185024 | 17 | 260 | 9.7 | 22.5 | 0.00 | 0.00 | 0.81 | 60 | 1010.8 |
| 20260503184524 | 17 | 260 | 11.3 | 22.5 | 0.00 | 0.00 | 0.81 | 60 | 1011.1 |
| 20260503184003 | 17 | 260 | 12.9 | 22.5 | 0.00 | 0.00 | 0.81 | 60 | 1011.0 |
| 20260503183503 | 17 | 254 | 11.3 | 22.5 | 0.00 | 0.00 | 0.81 | 61 | 1011.1 |
| 20260503183003 | 17 | 249 | 11.3 | 20.9 | 0.00 | 0.00 | 0.81 | 59 | 1010.8 |
| 20260503182503 | 17 | 253 | 11.3 | 22.5 | 0.00 | 0.00 | 0.81 | 58 | 1010.6 |
| 20260503182003 | 17 | 256 | 12.9 | 24.1 | 0.00 | 0.00 | 0.81 | 59 | 1010.7 |
| 20260503181504 | 17 | 256 | 12.9 | 24.1 | 0.00 | 0.00 | 0.81 | 58 | 1011.0 |
| 20260503181003 | 17 | 262 | 11.3 | 25.7 | 0.00 | 0.00 | 0.81 | 58 | 1010.7 |
| 20260503180502 | 17 | 260 | 11.3 | 25.7 | 0.00 | 0.00 | 0.81 | 57 | 1010.7 |
| 20260503180003 | 17 | 254 | 9.7 | 24.1 | 0.00 | 0.00 | 0.81 | 56 | 1011.0 |
| 20260503175503 | 18 | 259 | 12.9 | 29.0 | 0.00 | 0.00 | 0.81 | 55 | 1011.0 |
| 20260503175003 | 18 | 255 | 12.9 | 29.0 | 0.00 | 0.00 | 0.81 | 55 | 1010.8 |
| 20260503174502 | 18 | 252 | 12.9 | 24.1 | 0.00 | 0.00 | 0.81 | 56 | 1011.0 |
| 20260503174002 | 18 | 248 | 11.3 | 24.1 | 0.00 | 0.00 | 0.81 | 57 | 1010.8 |
| 20260503173503 | 18 | 235 | 9.7 | 22.5 | 0.00 | 0.00 | 0.81 | 57 | 1010.7 |
| 20260503173024 | 18 | 242 | 11.3 | 25.7 | 0.00 | 0.00 | 0.81 | 56 | 1010.7 |
| 20260503172502 | 17 | 238 | 12.9 | 25.7 | 0.00 | 0.00 | 0.81 | 57 | 1010.8 |
| 20260503172002 | 18 | 219 | 12.9 | 29.0 | 0.00 | 0.00 | 0.81 | 57 | 1010.8 |
| 20260503171503 | 18 | 233 | 12.9 | 29.0 | 0.00 | 0.00 | 0.81 | 57 | 1010.8 |
| 20260503171002 | 18 | 243 | 11.3 | 24.1 | 0.00 | 0.00 | 0.81 | 57 | 1010.8 |
| 20260503170503 | 18 | 243 | 9.7 | 22.5 | 0.00 | 0.00 | 0.81 | 56 | 1010.8 |
| 20260503151002 | 18 | 219 | 14.5 | 30.6 | 0.00 | 0.00 | 0.81 | 54 | 1011.0 |
| 20260503150502 | 18 | 214 | 14.5 | 30.6 | 0.00 | 0.00 | 0.81 | 54 | 1011.0 |
| 20260503131002 | 18 | 247 | 16.1 | 29.0 | 0.00 | 0.03 | 0.81 | 59 | 1011.8 |
| 20260503130502 | 18 | 242 | 14.5 | 29.0 | 0.00 | 0.03 | 0.81 | 58 | 1011.6 |
| 20260503110502 | 17 | 222 | 12.9 | 24.1 | 0.00 | 1.63 | 0.81 | 69 | 1012.8 |
| 20260503090502 | 15 | 204 | 6.4 | 14.5 | 0.00 | 1.80 | 0.81 | 90 | 1013.5 |
| 20260503081502 | 13 | 199 | 4.8 | 14.5 | 0.00 | 1.85 | 0.81 | 99 | 1013.7 |
| 20260503081002 | 13 | 190 | 4.8 | 11.3 | 0.00 | 1.85 | 0.81 | 99 | 1013.8 |
| 20260503080502 | 13 | 192 | 4.8 | 9.7 | 0.00 | 1.85 | 0.81 | 99 | 1013.8 |
| 20260503072502 | 12 | 183 | 4.8 | 9.7 | 0.00 | 2.21 | 0.81 | 98 | 1013.5 |
| 20260503072002 | 12 | 185 | 4.8 | 6.4 | 0.00 | 2.26 | 0.00 | 98 | 1013.4 |
| 20260503071523 | 12 | 194 | 4.8 | 6.4 | 0.00 | 2.26 | 0.00 | 98 | 1013.3 |
| 20260503071002 | 12 | 189 | 4.8 | 9.7 | 0.00 | 2.26 | 0.00 | 98 | 1013.3 |
| 20260503070523 | 12 | 190 | 4.8 | 9.7 | 0.00 | 2.26 | 0.00 | 98 | 1013.4 |
| 20260503055002 | 12 | 160 | 1.6 | 4.8 | 0.00 | 2.41 | 0.00 | 95 | 1013.1 |
| 20260503054502 | 12 | 144 | 1.6 | 4.8 | 0.00 | 2.41 | 0.00 | 95 | 1013.0 |
| 20260503054002 | 12 | 131 | 1.6 | 3.2 | 0.00 | 2.41 | 0.00 | 95 | 1013.0 |
| 20260503053502 | 12 | 121 | 1.6 | 4.8 | 0.00 | 2.41 | 0.00 | 95 | 1013.0 |
| 20260503053023 | 12 | 109 | 1.6 | 4.8 | 0.00 | 2.41 | 0.00 | 96 | 1012.9 |
| 20260503052502 | 12 | 110 | 1.6 | 3.2 | 0.00 | 2.41 | 0.00 | 96 | 1012.9 |
| 20260503052002 | 12 | 118 | 1.6 | 3.2 | 0.00 | 2.41 | 0.00 | 96 | 1013.3 |
| 20260503051523 | 12 | 107 | 0.0 | 3.2 | 0.00 | 2.41 | 0.00 | 96 | 1013.1 |
| 20260503051002 | 12 | 85 | 0.0 | 1.6 | 0.00 | 2.41 | 0.00 | 96 | 1013.0 |
| 20260503050502 | 12 | 73 | 0.0 | 3.2 | 0.00 | 2.41 | 0.00 | 96 | 1013.2 |
| 20260503050002 | 12 | 70 | 1.6 | 3.2 | 0.00 | 2.41 | 0.00 | 96 | 1013.0 |
| 20260503045502 | 12 | 63 | 1.6 | 3.2 | 0.00 | 2.41 | 0.00 | 96 | 1013.1 |
| 20260503045002 | 12 | 45 | 0.0 | 1.6 | 0.00 | 2.41 | 0.00 | 96 | 1012.9 |
| 20260503044523 | 12 | 41 | 0.0 | 1.6 | 0.00 | 2.41 | 0.00 | 96 | 1013.3 |
| 20260503044023 | 12 | 47 | 0.0 | 1.6 | 0.00 | 2.41 | 0.00 | 96 | 1013.2 |
| 20260503043523 | 12 | 46 | 0.0 | 1.6 | 0.00 | 2.41 | 0.00 | 96 | 1013.1 |
| 20260503043002 | 12 | 60 | 0.0 | 1.6 | 0.00 | 2.41 | 0.00 | 96 | 1013.1 |
| 20260503042523 | 12 | 71 | 1.6 | 6.4 | 0.00 | 2.41 | 0.00 | 96 | 1013.1 |
| 20260503042002 | 12 | 76 | 3.2 | 6.4 | 0.00 | 2.41 | 0.00 | 96 | 1012.9 |
| 20260503041523 | 12 | 78 | 3.2 | 6.4 | 0.00 | 2.41 | 0.00 | 96 | 1013.2 |
| 20260503041023 | 12 | 74 | 3.2 | 6.4 | 0.00 | 2.41 | 0.00 | 96 | 1013.2 |
| 20260503040502 | 12 | 72 | 4.8 | 6.4 | 0.00 | 2.41 | 0.00 | 96 | 1013.1 |
| 20260503040002 | 12 | 72 | 4.8 | 6.4 | 0.00 | 2.41 | 0.00 | 96 | 1013.2 |